EST,Max TemperatureF,Mean TemperatureF,Min TemperatureF,Max Dew PointF,MeanDew PointF,Min DewpointF,Max Humidity, Mean Humidity, Min Humidity, Max Sea Level PressureIn, Mean Sea Level PressureIn, Min Sea Level PressureIn, Max VisibilityMiles, Mean VisibilityMiles, Min VisibilityMiles, Max Wind SpeedMPH, Mean Wind SpeedMPH, Max Gust SpeedMPH,PrecipitationIn, CloudCover, Events, WindDirDegrees
2012-2-1,51,41,31,46,34,27,92,83,73,30.19,30.07,29.89,10,9,5,16,6,21,0.00,5,,311
2012-2-2,42,34,26,34,30,24,92,81,70,30.43,30.30,30.15,9,6,0,12,2,25,0.00,5,Fog,247
2012-2-3,40,33,26,34,31,25,92,84,76,30.51,30.44,30.38,8,4,0,9,2,12,0.00,7,Fog,20
2012-2-4,42,35,28,32,29,25,89,77,64,30.38,30.28,30.19,10,6,0,14,6,18,0.06,6,Fog-Snow,73
2012-2-5,44,33,21,34,25,18,96,77,58,30.32,30.25,30.17,10,7,0,13,3,16,0.00,2,Fog,292
2012-2-6,32,29,26,29,26,23,92,85,78,30.23,30.19,30.12,10,5,0,18,9,22,0.00,6,Fog,225
2012-2-7,37,34,30,31,28,23,92,78,64,30.37,30.29,30.19,10,7,1,13,6,16,0.00,8,,4
2012-2-8,34,28,22,23,20,16,77,67,56,30.38,30.34,30.32,10,10,10,16,6,22,0.00,6,,315
2012-2-9,34,27,20,20,18,16,84,68,51,30.31,30.25,30.14,10,10,7,20,11,24,0.00,0,,220
2012-2-10,35,26,16,31,23,8,89,79,69,30.13,29.96,29.85,10,7,1,29,13,35,0.01,8,Snow,257
2012-2-11,21,17,13,14,9,5,80,71,61,30.36,30.25,30.07,10,4,0,24,11,31,0.18,7,Snow,315
2012-2-12,32,26,20,14,12,10,68,56,43,30.32,30.28,30.21,10,10,10,22,13,29,0.00,3,,275
2012-2-13,34,25,15,25,14,5,85,63,41,30.23,30.09,29.92,10,8,1,18,8,23,T,5,Snow,190
2012-2-14,34,31,28,29,26,25,92,84,75,30.06,29.91,29.84,10,6,1,12,8,14,0.10,8,Snow,195
2012-2-15,42,38,34,37,32,28,92,81,70,30.17,30.09,30.00,10,8,2,18,10,24,0.12,8,Rain,173
2012-2-16,45,38,31,38,35,24,92,77,62,30.14,30.02,29.94,10,4,0,20,8,25,0.12,6,Fog-Rain,247
2012-2-17,47,37,26,32,26,21,81,61,40,30.19,30.12,30.02,10,10,9,18,9,28,0.00,3,,221
2012-2-18,40,33,25,30,23,16,85,63,40,30.24,30.13,30.03,10,10,6,24,11,35,T,4,Snow,328
2012-2-19,38,29,20,20,17,14,84,62,40,30.25,30.21,30.16,10,10,10,12,5,16,0.00,0,,28
2012-2-20,42,30,17,25,20,13,84,65,45,30.37,30.24,30.01,10,10,8,20,8,23,0.00,0,,128
2012-2-21,43,39,34,38,32,23,96,75,54,29.97,29.72,29.64,10,7,1,25,12,31,0.11,6,Rain-Snow,203
2012-2-22,38,35,31,34,31,28,96,86,75,29.72,29.53,29.43,10,4,0,14,5,17,0.18,8,Fog-Rain-Snow,184
2012-2-23,38,34,29,35,31,27,96,91,85,29.62,29.53,29.45,6,3,0,14,6,17,0.18,7,Fog-Rain-Snow,89
2012-2-24,36,33,29,32,29,22,96,83,69,29.90,29.60,29.32,10,3,0,24,13,32,0.42,8,Fog-Rain-Snow,306
2012-2-25,30,25,19,22,18,13,81,67,53,30.37,30.10,29.87,10,7,2,20,12,26,T,6,Snow,269
2012-2-26,47,31,15,26,20,10,80,63,45,30.38,30.23,30.08,10,10,9,25,12,31,0.00,0,,155
2012-2-27,44,34,24,27,22,18,75,58,41,30.52,30.31,30.09,10,10,10,25,10,31,0.00,3,,266
2012-2-28,45,33,21,33,24,16,84,67,49,30.51,30.34,29.96,10,9,6,21,10,26,0.03,4,Rain,124
2012-2-29,66,51,36,50,36,24,92,59,25,29.93,29.64,29.43,10,6,1,38,19,51,0.79,6,Rain,165